TimeEDT,TemperatureF,Dew PointF,Humidity,Sea Level PressureIn,VisibilityMPH,Wind Direction,Wind SpeedMPH,Gust SpeedMPH,PrecipitationIn,Events,Conditions,WindDirDegrees,DateUTC
12:53 AM,59.0,35.1,41,29.84,10.0,Calm,Calm,-,N/A,,Clear,0,2011-10-18 04:53:00
1:53 AM,57.9,35.1,42,29.83,10.0,Calm,Calm,-,N/A,,Clear,0,2011-10-18 05:53:00
2:53 AM,57.9,33.1,39,29.81,10.0,Calm,Calm,-,N/A,,Clear,0,2011-10-18 06:53:00
3:53 AM,57.0,34.0,42,29.81,10.0,NE,3.5,-,N/A,,Clear,50,2011-10-18 07:53:00
4:53 AM,57.0,33.1,40,29.81,10.0,Variable,3.5,-,N/A,,Scattered Clouds,0,2011-10-18 08:53:00
5:53 AM,55.9,34.0,44,29.80,10.0,Variable,4.6,-,N/A,,Clear,0,2011-10-18 09:53:00
6:53 AM,54.0,36.0,51,29.79,10.0,Calm,Calm,-,N/A,,Clear,0,2011-10-18 10:53:00
7:53 AM,54.0,35.1,49,29.78,10.0,Calm,Calm,-,N/A,,Clear,0,2011-10-18 11:53:00
8:53 AM,55.0,35.1,47,29.78,10.0,East,4.6,-,N/A,,Clear,80,2011-10-18 12:53:00
9:53 AM,55.9,37.9,51,29.78,10.0,ENE,3.5,-,N/A,,Clear,70,2011-10-18 13:53:00
10:53 AM,62.1,46.0,56,29.77,10.0,Calm,Calm,-,N/A,,Clear,0,2011-10-18 14:53:00
11:53 AM,66.9,50.0,54,29.75,10.0,Variable,3.5,-,N/A,,Clear,0,2011-10-18 15:53:00
12:53 PM,73.0,54.0,51,29.73,10.0,Calm,Calm,-,N/A,,Clear,0,2011-10-18 16:53:00
1:53 PM,75.2,53.6,47,29.72,10.0,Variable,4.6,-,N/A,,Clear,0,2011-10-18 17:53:00
2:53 PM,79.0,51.1,38,29.65,10.0,Variable,5.8,-,N/A,,Scattered Clouds,0,2011-10-18 18:53:00
3:53 PM,77.0,48.9,37,29.64,10.0,Variable,5.8,-,N/A,,Clear,0,2011-10-18 19:53:00
4:53 PM,75.0,50.0,41,29.64,10.0,Variable,3.5,-,N/A,,Clear,0,2011-10-18 20:53:00
5:53 PM,73.9,48.9,41,29.60,10.0,SE,3.5,-,N/A,,Clear,140,2011-10-18 21:53:00
6:53 PM,72.0,48.0,43,29.59,10.0,SSE,5.8,-,N/A,,Clear,150,2011-10-18 22:53:00
7:53 PM,71.1,48.9,45,29.59,10.0,Calm,Calm,-,N/A,,Mostly Cloudy,0,2011-10-18 23:53:00
8:14 PM,71.6,48.2,43,29.62,10.0,Calm,Calm,-,N/A,Thunderstorm,Mostly Cloudy,0,2011-10-19 00:14:00
8:29 PM,71.6,48.2,43,29.61,10.0,Calm,Calm,-,N/A,Thunderstorm,Mostly Cloudy,0,2011-10-19 00:29:00
8:53 PM,69.1,50.0,51,29.59,10.0,WNW,6.9,-,0.00,Thunderstorm,Overcast,300,2011-10-19 00:53:00
9:15 PM,62.6,55.4,77,29.62,10.0,NW,10.4,18.4,0.00,,Overcast,320,2011-10-19 01:15:00
9:53 PM,57.9,52.0,81,29.59,10.0,Variable,4.6,-,0.00,,Clear,0,2011-10-19 01:53:00
10:53 PM,57.9,51.1,78,29.55,10.0,Calm,Calm,-,N/A,,Clear,0,2011-10-19 02:53:00
11:53 PM,57.0,50.0,77,29.55,10.0,Variable,4.6,-,N/A,,Mostly Cloudy,0,2011-10-19 03:53:00